sat.trackr.live / text

‹ back to catalog

LEMUR-2-CAEL

NORAD 58903 · 2024-022E

PAYLOAD ACTIVE UNKNOWN

§ Identity

Operator
Country
US
Launch date
2024-01-31
Launch site
RLLB
Launch vehicle
Mass (kg)
RCS (m²)

Purposes: earth_obs

External: N2YO · Heavens-Above · Gunter

§ Orbital elements

Epoch: 2026-09-19T20:51:27.049248Z

Period
93.28 min
Inclination
97.3972°
Eccentricity
0.0008629
Mean motion
15.43749770 rev/d
Perigee alt
429.2 km
Apogee alt
440.9 km
Semi-major
6,813.2 km
B*
2.7789e-4
RAAN
115.2488°
Arg perigee
109.0940°
Mean anomaly
251.1243°
Rev number
14,693

§ Raw data

LEMUR-2-CAEL1 58903U 24022E   26262.86906307  .00012491  00000+0  27789-3 0  99942 58903  97.3972 115.2488 0008629 109.0940 251.1243 15.43749770146939

JSON: /api/v1/satellites/58903 · /tle

For live sub-satellite position, see the globe view (requires WebGL).

§ Visibility from observer

Set your observer location to see the next 7 days of passes ≥ 10°. The values pass through the URL so the page stays shareable.

No JS? Fill the form by hand. The geolocation button needs JavaScript.

§ Radio — SatNOGS DB

ModeDescriptionDownlinkUplink
FM Telemetry 402.792 MHz

1 transmitter · refreshed weekly from db.satnogs.org